Starlink 34612

operational
NORAD ID: 64773 Int'l Des: 2025-147 Owner: SPXS Country: US Constellation: starlink
LEOCIRCULAR

关于 Starlink 34612

正在加载描述...

实时位置

正在加载3D地球...

即将过境

高度历史

Altitude vs Time

uPlot chart will show altitude changes over time

两行轨道根数

1 64773U 25147U 25340.93312001 .00040896 00000-0 13842-2 0 9996
2 64773 53.1601 313.3595 0001697 91.6840 268.4356 15.30227181 24555
Epoch: Dec 6, 2025 • Age: 13 hours

当前状态

高度 475.3 km
速度 7.63 km/s
星下点 4.16°N, 124.25°W
发射日期 Jul 8, 2025
运行时间 0.4 years
类型 internet

技术详情

分类 Payload
质量 575.00 kg
干质量 530.00 kg
总质量 575.00 kg
长度 0.30 m
直径 4.10 m
跨度 29.00 m
形状 Box + pan
制造商 SPXS
平台类型 Starlink V2MO
阶段状态 In Orbit
所有者/国家 SPXS/US

大型星座

Loading constellations...